Regional Weather Roundup
Issued by NWS

Home | Current Version | Previous Version | Text Only | Print | Product List | Glossary On
Versions: 1 2 3 4 5 6 7 8 9 10 11 12 13 14 15 16 17 18 19 20 21 22 23 24 25 26
000
ASUS45 KBOU 281307
RWRCO

WEATHER ROUNDUP FOR COLORADO
NATIONAL WEATHER SERVICE DENVER/BOULDER CO
700 AM MDT WED JUN 28 2017

NOTE: "FAIR" INDICATES FEW OR NO CLOUDS BELOW 12000 FEET WITH NO
SIGNIFICANT WEATHER AND/OR OBSTRUCTIONS TO VISIBILITY.

COZ001>005-013-030-031-281400-
...NORTHWEST COLORADO...

CITY           SKY/WX    TMP DP  RH WIND       PRES   REMARKS
CRAIG          FAIR      48  39  71 CALM      30.03S
HAYDEN         FAIR      52  36  54 E13       30.05S
MEEKER         FAIR      53  36  52 CALM      30.04R
RABBIT EARS PA PTSUNNY   48  32  53 CALM      30.29R
STEAMBOAT SPGS FAIR      45  38  78 CALM      30.08R
WALDEN         FAIR      41  34  75 CALM      30.16R
$$

COZ006>008-011-281400-
...WEST CENTRAL VALLEYS...

CITY           SKY/WX    TMP DP  RH WIND       PRES   REMARKS
GRAND JUNCTION FAIR      68  29  23 E12       29.89R
MONTROSE       FAIR      60  23  24 SE10      30.00R
EAGLE          MOSUNNY   50  32  50 CALM      30.09R
RIFLE          FAIR      60  33  36 NE3       29.97R
DELTA          FAIR      63  29  27 E6        29.96R
NUCLA          FAIR      57  19  23 E6        30.03R
$$

COZ017>023-064>068-281400-
...SOUTHWEST COLORADO...

CITY           SKY/WX    TMP DP  RH WIND       PRES   REMARKS
DURANGO        FAIR      47  23  38 NE3       30.10R
CORTEZ         FAIR      50  28  42 NE5       30.04R
PAGOSA SPRINGS FAIR      54  18  25 CALM      30.19R
TELLURIDE      FAIR      54  17  23 CALM      30.25R
WOLF CREEK PAS FAIR      43  10  26 SW8       30.49R
$$

COZ009-010-012-014-032>034-037-058>063-281400-
...CENTRAL COLORADO...

CITY           SKY/WX    TMP DP  RH WIND       PRES   REMARKS
ASPEN          FAIR      53  32  44 SW8       30.10S
BUENA VISTA    FAIR      50  26  40 E3        30.18R
COPPER MTN     CLOUDY    52  23  32 S13       30.41R
BERTHOUD PASS  CLOUDY    43  30  61 W9G23     30.42S
COTTONWOOD PAS FAIR      59  16  18 SE3       30.28R
GUNNISON       NOT AVBL
KREMMLING      FAIR      54  41  62 CALM      30.14R
LEADVILLE      FAIR      44  27  51 E3        30.26S
MONARCH PASS   FAIR      48   9  20 SW5       30.52S
SALIDA         FAIR      51  25  36 CALM      30.22S
SUNLIGHT       FAIR      50  21  32 SW7       30.34R
WILKERSON PASS FAIR      46  28  49 S9        30.39S
$$

COZ069>075-281400-
...SAN LUIS VALLEY/SANGRE DE CRISTO MOUNTAINS...

CITY           SKY/WX    TMP DP  RH WIND       PRES   REMARKS
ALAMOSA        FAIR      50  36  58 E9        30.13R
DEL NORTE      FAIR      53  19  25 W5        30.17R
LA VETA PASS   FAIR      54  34  47 N7        30.44S
SAGUACHE       FAIR      50  18  27 NW7       30.17R
$$

COZ035-036-038>040-281400-
...NORTHERN COLORADO FRONT RANGE...

CITY           SKY/WX    TMP DP  RH WIND       PRES   REMARKS
DENVER INTL AP PTSUNNY   63  42  46 S8        29.99R
DMNS CITY PARK   N/A     62  43  50 SE8       29.99S
AURORA         PTSUNNY   60  43  52 S8        30.01S
FRONT RANGE AP FAIR      59  43  55 S6        30.00S
ERIE MUNI ARPT FAIR      65  42  44 S3        29.97S
BOULDER MUN AP FAIR      63  43  48 CALM      29.98R
CENTENNIAL     FAIR      62  43  49 S8        30.02S
BROOMFIELD     FAIR      63  41  45 S3        30.01R
FORT COLLINS   FAIR      61  48  62 S5        29.97S
LONGMONT       FAIR      61  48  63 W5        29.99R
$$

COZ041-046-047-076>085-087-088-281400-
...PIKES PEAK/PALMER DIVIDE AND SOUTHERN FOOTHILLS...

CITY           SKY/WX    TMP DP  RH WIND       PRES   REMARKS
COLO. SPRINGS  FAIR      62  41  46 NW5       30.06R
A. F. ACADEMY  FAIR      55  40  58 N6        30.06F
SCHRIEVER AFB  FAIR      61  40  46 N9        30.05R
CHEYENNE MTN   FAIR      64  35  33 N7        30.04R
ELLICOTT       FAIR     N/A N/A N/A N5        30.02S
FALCON           N/A     60  38  43 NW8       30.09S
FORT CARSON    FAIR      63  39  41 N6        30.02S
LIMON          FAIR      59  46  62 CALM      29.98S
MONUMENT HILL  FAIR      52  39  62 SW3       30.10S
CANON CITY     SUNNY     66  39  37 W3        30.02R
WALSENBURG     FAIR      61  45  55 SW3       30.07R
TRINIDAD       FAIR      59  41  51 W9        30.05R
$$

COZ042>045-048>051-090-091-281400-
...NORTHEAST COLORADO...

CITY           SKY/WX    TMP DP  RH WIND       PRES   REMARKS
GREELEY ARPT   FAIR      59  48  67 CALM      29.96S
AKRON          FAIR      64  45  49 NW8       29.94R
BURLINGTON     FAIR      61  53  75 NW8       29.87S
WRAY           FAIR      63  52  67 NW10      29.86R
YUMA           FAIR      59  45  58 NW9       29.89S
STERLING       FAIR      61  48  63 NW5       29.90R
HOLYOKE        NOT AVBL
FORT MORGAN    FAIR      61  44  54 W6        29.95R
$$

COZ086-089-092>099-281400-
...SOUTHEAST COLORADO...

CITY           SKY/WX    TMP DP  RH WIND       PRES   REMARKS
PUEBLO         FAIR      68  41  37 W8        29.96S
LA JUNTA       FAIR      67  46  47 W10       29.90R
LAMAR          FAIR      66  51  58 W10       29.84R
SPRINGFIELD      N/A     68  46  45 NW23G32   29.85R
$$




USA.gov is the U.S. government's official web portal to all federal, state and local government web resources and services.